Tracking 19846 objects as of 18-Sep-2019
HD Live streaming from Space Station
objects crossing your sky now

FENGYUN 1C DEB

Track FENGYUN 1C DEB now!
10-day predictions


NORAD ID: 30678
Int'l Code: 1999-025AQL
Perigee: 825.7 km
Apogee: 977.0 km
Inclination: 99.0 °
Period: 102.9 minutes
Semi major axis: 7272 km
RCS: 0.0357 m2 (small)
Launch date: May 10, 1999
Source: People's Republic of China (PRC)
Launch site: Taiyaun Space Center, China (TSC)

Note: This is SATELLITE DEBRIS
aabbcc
Your satellite tracking list
Your tracking list is empty




NASA's NSSDC Master Catalog

Two Line Element Set (TLE):
1 30678U 99025AQL 19260.02355503  .00001482  00000-0  99152-3 0  9994
2 30678  99.0301 184.0902 0104027 108.8199 312.9766 13.99886384638608
Source of the keplerian elements: AFSPC